476  
ASUS43 KLMK 251510  
RWRKY  
KENTUCKY REGIONAL WEATHER ROUNDUP  
NATIONAL WEATHER SERVICE LOUISVILLE KY  
1100 AM EDT SAT JUN 25 2016  
 
NOTE "FAIR" INDICATES FEW OR NO CLOUDS BELOW 12,000 FEET  
WITH NO SIGNIFICANT WEATHER AND/OR S TO VISIBILITY
.  
 
KYZ001>023-026-027-061>063-070>075-251600-  
WESTERN AND SOUTH CENTRAL KENTUCKY  
 
CITY SKY/WX TMP DP RH WIND PRES REMARKS
 
PADUCAH SUNNY 87 72 60 SW7 30.09S HX 93  
HENDERSON MOSUNNY 84 66 54 SE5 30.10S  
OWENSBORO SUNNY 87 70 57 S5 30.13R HX 92  
HOPKINSVILLE SUNNY 87 72 60 VRB6 30.11F HX 94  
BOWLING GREEN SUNNY 85 71 63 E3 30.13S HX 90  
GLASGOW MOSUNNY 83 67 59 CALM 30.14S  

 
 
KYZ024-025-028>034-038-045-046-053-251600-  
NORTH CENTRAL KENTUCKY  
 
CITY SKY/WX TMP DP RH WIND PRES REMARKS
 
LOUISVILLE/SDF MOSUNNY 84 68 58 SE5 30.13S  
LOUISVILLE/LOU SUNNY 84 68 58 CALM 30.14S  
FORT KNOX MOSUNNY 83 68 59 E5 30.13S  

 
 
KYZ035>037-039>044-047>052-055>060-089>105-251600-  
NORTHEAST KENTUCKY  
 
CITY SKY/WX TMP DP RH WIND PRES REMARKS
 
LEXINGTON SUNNY 84 66 54 VRB3 30.16S  
COVINGTON MOSUNNY 80 62 54 SE3 30.16S  
FRANKFORT SUNNY 82 68 62 CALM 30.14F  

 
 
KYZ054-064>069-076>088-106>120-251600-  
SOUTHEAST KENTUCKY  
 
CITY SKY/WX TMP DP RH WIND PRES REMARKS
 
JACKSON SUNNY 79 68 69 CALM 30.18F  
LONDON SUNNY 81 67 62 E5 30.17S  
SOMERSET SUNNY 79 68 69 CALM 30.17S  
MIDDLESBORO SUNNY 77 70 80 CALM 30.18S  
MONTICELLO NOT AVBL  

 
 
 
 
CLICK HERE TO GO TO PREVIOUS BULLETINS.

The Nexlab KY Page Main Text Page